Regional Weather Roundup
Issued by NWS

Home | Current Version | Previous Version | Graphics & Text | Print | Product List | Glossary On
Versions: 1 2 3 4 5 6 7 8 9 10 11 12 13 14 15 16 17 18 19 20 21 22 23 24 25 26 27 28 29 30 31 32 33 34 35 36 37 38 39 40 41 42 43 44 45 46 47 48 49 50
000
ASUS43 KIND 221559
RWRIN

WEATHER ROUNDUP FOR INDIANA
NATIONAL WEATHER SERVICE INDIANAPOLIS IN
1100 AM EST MON DEC 22 2014

NOTE: "FAIR" INDICATES FEW OR NO CLOUDS BELOW 12,000 FEET WITH NO
SIGNIFICANT WEATHER AND/OR OBSTRUCTIONS TO VISIBILITY.

* - STATION DOES NOT REPORT WEATHER SUCH AS PRECIPITATION OR FOG.

+ - STATION NOT QUALITY CONTROLLED BY THE NATIONAL WEATHER SERVICE.
    USE DATA WITH CAUTION...ESPECIALLY DEWPOINT AND RELATIVE
    HUMIDITY OBSERVATIONS.

INZ001>003-010>013-019-020-221700-
NORTHWEST INDIANA

CITY           SKY/WX    TMP DP  RH WIND       PRES   REMARKS
GARY /AIRPORT/ CLOUDY    36  25  64 SE9       29.90F
VALPARAISO     NOT AVBL

$$

LMZ046-743>745-221700-
SOUTHERN LAKE MICHIGAN

STATION/POSITION TIME  TEMP WIND        PRES
                       AIR  DIR/SP/G
                 (UTC) (F)  (DEG/KT/KT) (MB)

$$

INZ004-005-014>016-021>024-221700-
NORTH CENTRAL INDIANA

CITY           SKY/WX    TMP DP  RH WIND       PRES   REMARKS
ELKHART        CLOUDY    32  25  74 E6        29.96F HAZE    WCI  26
GOSHEN         CLOUDY    32  26  78 SE13      29.95F HAZE    WCI  22
SOUTH BEND     CLOUDY    32  26  78 E12       29.94F WCI  23

$$

INZ006>009-017-018-025>027-221700-
NORTHEAST INDIANA

CITY           SKY/WX    TMP DP  RH WIND       PRES   REMARKS
ANGOLA *+      MOSUNNY   28  25  86 E8        29.97F WCI  20
FORT WAYNE     CLOUDY    31  27  85 E9        29.98F FOG     WCI  23

$$

INZ028-029-035-036-043>045-051>053-221700-
WEST CENTRAL INDIANA

CITY           SKY/WX    TMP DP  RH WIND       PRES   REMARKS
GREENCASTLE +  CLOUDY    34  30  86 E5        29.92F WCI  30
LAFAYETTE      CLOUDY    36  31  82 SE5       29.92S
TERRE HAUTE    CLOUDY    39  34  82 SE13      29.88F

$$

INZ030>032-037>040-046>048-054>057-064-065-221700-
CENTRAL INDIANA

CITY           SKY/WX    TMP DP  RH WIND       PRES   REMARKS
ANDERSON       CLOUDY    37  30  75 SE17      29.95F
COLUMBUS       CLOUDY    37  34  87 E5        29.95F
INDIANAPOLIS   CLOUDY    36  31  82 SE9       29.93R
-EAGLE CREEK   CLOUDY    37  31  78 SE8       29.93S
KOKOMO *+      CLOUDY    34  30  86 SE9       29.93F WCI  26
MT COMFORT *+  CLOUDY    37  28  70 SE7       29.94F
SHELBYVILLE    CLOUDY    38  32  79 SE8       29.94F

$$

INZ033-034-041-042-049-050-058-059-221700-
EAST CENTRAL INDIANA

CITY           SKY/WX    TMP DP  RH WIND       PRES   REMARKS
MUNCIE         CLOUDY    38  31  76 SE8       29.95F

$$

INZ060-061-067>069-081>083-085>088-221700-
SOUTHWEST INDIANA

CITY           SKY/WX    TMP DP  RH WIND       PRES   REMARKS
EVANSVILLE     CLOUDY    48  42  80 SE6       29.88F
HUNTINGBURG *+ CLOUDY    46  39  76 SE14      29.90F

$$

INZ062-063-066-070>080-084-089>092-221700-
SOUTH CENTRAL AND SOUTHEAST INDIANA

CITY           SKY/WX    TMP DP  RH WIND       PRES   REMARKS
BLOOMINGTON    LGT RAIN  36  32  85 SE7       29.91F
SEYMOUR +      CLOUDY    43  36  75 SE5       29.94

$$




USA.gov is the U.S. government's official web portal to all federal, state and local government web resources and services.